Weather History for Pascagoula, MS

Change the Weather History Date:

Thursday, April 11, 2013

  Actual Average Record
Temperature  
Mean Temperature 70 °F -  
Max Temperature 81 °F 74 °F 88 °F (1999)
Min Temperature 57 °F 55 °F 36 °F (1973)
Cooling Degree Days 4    
Growing Degree Days 20 (Base 50)    
Moisture  
Dew Point 67 °F    
Average Humidity 88    
Maximum Humidity 96    
Minimum Humidity 74    
Precipitation  
Precipitation 1.02 in - - ()
Sea Level Pressure  
Sea Level Pressure 29.73 in    
Wind  
Wind Speed 13 mph (South)    
Max Wind Speed 21 mph    
Max Gust Speed 31 mph    
Visibility 8 miles    
Events Rain , Thunderstorm    
Averages and records for this station are not official NWS values.
T = Trace of Precipitation, MM = Missing Value Source: NWS Daily Summary

Daily Weather History Graph

Daily Weather History Graph

Search for Another Location

Airport:

Trip Planner

Search our weather history database for the weather conditions in past years. The results will help you decide how hot, cold, wet, or windy it might be!

Date:

Astronomy

Apr. 11, 2013 Rise Set
Actual Time 6:31 AM CDT 7:19 PM CDT
Civil Twilight 6:06 AM CDT 7:44 PM CDT
Nautical Twilight 5:37 AM CDT 8:12 PM CDT
Astronomical Twilight 5:08 AM CDT 8:42 PM CDT
Moon 7:08 AM CDT (4/11) 8:45 PM CDT (4/11)
Length of Visible Light 13h 37m
Length of Day
12h 48m
New Moon, 2% of the Moon is Illuminated
Apr 11
New Moon
Apr 18
First Quarter
Apr 25
Full
May 2
Last Quarter
May 9
New

Hourly Weather History & Observations

Time (CDT) Temp. Heat Index Dew Point Humidity Pressure Visibility Wind Dir Wind Speed Gust Speed Precip Events Conditions
12:53 AM 73.0 °F - 69.1 °F 87% 29.87 in 10.0 mi SSE 13.8 mph - N/A   Overcast
1:53 AM 73.0 °F - 69.1 °F 87% 29.84 in 9.0 mi SSE 15.0 mph 19.6 mph N/A   Overcast
2:53 AM 72.0 °F - 69.1 °F 91% 29.81 in 9.0 mi SSE 13.8 mph 21.9 mph N/A   Overcast
3:53 AM 72.0 °F - 69.1 °F 91% 29.80 in 10.0 mi SSE 11.5 mph - N/A   Mostly Cloudy
4:03 AM 71.6 °F - 69.8 °F 94% 29.78 in 10.0 mi SSE 11.5 mph - N/A   Mostly Cloudy
4:53 AM 72.0 °F - 69.1 °F 91% 29.78 in 10.0 mi SSE 12.7 mph 23.0 mph N/A   Overcast
5:40 AM 73.4 °F - 69.8 °F 88% 29.78 in 10.0 mi SSE 13.8 mph 23.0 mph N/A   Overcast
5:53 AM 73.0 °F - 70.0 °F 90% 29.78 in 10.0 mi SSE 16.1 mph - N/A   Overcast
6:53 AM 73.0 °F - 70.0 °F 90% 29.79 in 9.0 mi SSE 12.7 mph - N/A   Overcast
7:53 AM 75.0 °F - 70.0 °F 84% 29.81 in 7.0 mi South 12.7 mph 20.7 mph N/A   Mostly Cloudy
8:05 AM 75.2 °F - 69.8 °F 83% 29.80 in 7.0 mi South 12.7 mph 21.9 mph N/A   Mostly Cloudy
8:18 AM 75.2 °F - 69.8 °F 83% 29.80 in 7.0 mi South 13.8 mph 21.9 mph N/A   Overcast
8:53 AM 75.9 °F - 70.0 °F 82% 29.81 in 8.0 mi South 13.8 mph 24.2 mph N/A   Mostly Cloudy
9:09 AM 77.0 °F - 69.8 °F 78% 29.80 in 9.0 mi SSE 15.0 mph 27.6 mph N/A   Mostly Cloudy
9:53 AM 78.1 °F - 71.1 °F 79% 29.81 in 10.0 mi South 13.8 mph 24.2 mph N/A   Overcast
10:13 AM 78.8 °F - 71.6 °F 78% 29.79 in 10.0 mi SSE 19.6 mph 29.9 mph N/A   Mostly Cloudy
10:53 AM 79.0 °F - 71.1 °F 77% 29.79 in 10.0 mi South 15.0 mph 31.1 mph N/A   Mostly Cloudy
11:39 AM 80.6 °F 84.6 °F 71.6 °F 74% 29.77 in 10.0 mi South 13.8 mph 31.1 mph N/A   Mostly Cloudy
12:53 PM 78.1 °F - 71.1 °F 79% 29.74 in 10.0 mi SSE 20.7 mph 28.8 mph N/A   Overcast
1:40 PM 75.2 °F - 71.6 °F 89% 29.71 in 8.0 mi South 19.6 mph 28.8 mph N/A   Overcast
1:53 PM 77.0 °F - 71.1 °F 82% 29.70 in 8.0 mi South 16.1 mph 29.9 mph N/A   Overcast
2:53 PM 75.9 °F - 71.1 °F 85% 29.68 in 7.0 mi SSE 16.1 mph 28.8 mph N/A   Overcast
3:22 PM 75.2 °F - 71.6 °F 89% 29.66 in 9.0 mi South 13.8 mph 25.3 mph N/A Thunderstorm Overcast
3:41 PM 75.2 °F - 71.6 °F 89% 29.65 in 9.0 mi SSE 15.0 mph 24.2 mph N/A   Overcast
3:49 PM 75.2 °F - 71.6 °F 89% 29.64 in 9.0 mi South 18.4 mph 27.6 mph 0.00 in Rain , Thunderstorm Light Rain
3:53 PM 75.0 °F - 71.1 °F 87% 29.64 in 8.0 mi South 12.7 mph 27.6 mph 0.00 in Rain , Thunderstorm Light Rain
4:16 PM 73.4 °F - 71.6 °F 94% 29.64 in 1.8 mi WSW 16.1 mph 27.6 mph 0.15 in Rain , Thunderstorm Heavy Thunderstorms and Rain
4:27 PM 69.8 °F - 68.0 °F 94% 29.65 in 1.0 mi South 9.2 mph - 0.45 in Rain , Thunderstorm Heavy Thunderstorms and Rain
4:49 PM 69.8 °F - 68.0 °F 94% 29.64 in 3.0 mi Variable 4.6 mph - 0.65 in Rain , Thunderstorm Rain
4:53 PM 69.1 °F - 68.0 °F 96% 29.64 in 5.0 mi WNW 10.4 mph - 0.66 in Rain , Thunderstorm Light Rain
5:00 PM 69.8 °F - 66.2 °F 88% 29.64 in 2.5 mi WNW 9.2 mph - 0.09 in Rain Heavy Rain
5:08 PM 69.8 °F - 66.2 °F 88% 29.64 in 1.0 mi WNW 10.4 mph 19.6 mph 0.32 in Rain Heavy Rain
5:17 PM 69.8 °F - 66.2 °F 88% 29.64 in 2.0 mi WNW 6.9 mph - 0.34 in Rain Rain
5:23 PM 69.8 °F - 66.2 °F 88% 29.65 in 5.0 mi Variable 3.5 mph - 0.34 in Rain , Thunderstorm Light Rain
5:44 PM 69.8 °F - 66.2 °F 88% 29.63 in 6.0 mi SE 3.5 mph - 0.36 in Rain Light Rain
5:53 PM 69.1 °F - 66.9 °F 93% 29.62 in 10.0 mi East 4.6 mph - 0.36 in   Overcast
6:53 PM 69.1 °F - 66.9 °F 93% 29.63 in 10.0 mi WNW 4.6 mph - N/A   Clear
7:16 PM 66.2 °F - 64.4 °F 94% 29.66 in 10.0 mi WNW 10.4 mph 20.7 mph N/A   Mostly Cloudy
7:44 PM 62.6 °F - 60.8 °F 94% 29.70 in 10.0 mi WNW 6.9 mph - N/A   Overcast
7:53 PM 62.1 °F - 60.1 °F 93% 29.71 in 10.0 mi NW 9.2 mph 18.4 mph N/A   Overcast
8:53 PM 61.0 °F - 59.0 °F 93% 29.75 in 10.0 mi NW 10.4 mph - N/A   Overcast
9:07 PM 60.8 °F - 57.2 °F 88% 29.74 in 10.0 mi NNW 9.2 mph 16.1 mph N/A   Overcast
9:53 PM 61.0 °F - 57.0 °F 87% 29.77 in 10.0 mi NNW 9.2 mph - N/A   Overcast
10:53 PM 60.1 °F - 57.9 °F 93% 29.80 in 10.0 mi WNW 3.5 mph - N/A   Overcast
11:25 PM 59.0 °F - 55.4 °F 88% 29.80 in 10.0 mi Variable 6.9 mph - N/A   Overcast
11:53 PM 57.9 °F - 54.0 °F 87% 29.82 in 10.0 mi NW 5.8 mph - N/A   Overcast